Location: Asheville, NC
(35.6000°N, 82.5500°W)
Time: 02:31:05
(UTC-04:00)

XW-2A - Visible Passes

Search period start: 18 July 2018 00:00
Search period end: 28 July 2018 00:00
Orbit: 436 x 453 km, 97.4° (Epoch: 17 July)

Date Brightness Start Highest point End Pass type
(mag) Time Alt. Az. Time Alt. Az. Time Alt. Az.
18 Jul ? 21:45:42 10° SW 21:48:08 18° W 21:50:35 10° NW visible
19 Jul ? 21:08:00 10° S 21:11:20 66° W 21:14:43 10° NNW visible
20 Jul ? 22:07:13 10° W 22:07:29 10° W 22:07:45 10° W visible
21 Jul ? 21:27:31 10° SSW 21:30:35 32° W 21:33:41 10° NNW visible
23 Jul ? 21:47:31 10° SW 21:49:53 18° W 21:52:16 10° NW visible
24 Jul ? 21:09:44 10° S 21:13:04 62° W 21:16:27 10° NNW visible
26 Jul ? 21:29:15 10° SSW 21:32:18 31° W 21:35:23 10° NNW visible
